EHI
0 0 0 0 0 0 0 0 0 0 0 0 0 0 0 0 0 0 0 0 0 0 0 0 0 0 0 0 0 0 0 0 0 0 0 0 0 0
0 0 0 0 0 0 0 0 0 0 0 0 0 0 0 0 0 0 0 0 0 0 0 0 0 0 0 0 0 0 0 0 0 0 0 0 0 0
0 0 0 0 0 0 0 0 0 0 0 0 0 0 0 0 0 0 0 0 0 0 0 0 0 0 0 0 0 0 0 0 0 0 0 0 0 0
0 0 0 0 0 0 0 0 0 0 0 0 0 0 0 0 0 0 0 0 0 0 0 0 0 0 0 0 0 0 0 0 0 0 0 0 0 0
0 0 0 0 0 0 0 0 0 0 0 0 0 0 0 0 0 0 0 0 0 0 0 0 0 0 0 0 0 0 0 0 0 0 0 0 0 0
0 0 0 0 0 0 0 0 0 0 0 0 0 0 0 0 0 0 0 0 0 0 0 0 0 0 0 0 0 0 0 0 0 0 0 0 0 0
0 0 0 0 0 0 0 0 0 0 0 0 0 0 0 0 0 0 0 0 0 0 0 0 0 0 0 0 0 0 0 0 0 0 0 0 0 0
0 0 0 0 0 0 0 0 0 0 0 0 0 0 0 0 0 0 0 0 0 0 0 0 0 0 0 0 0 0 0 0 0 0 0 0 0 0
0 0 0 0 0 0 0 0 0 0 0 0 0 0 0 0 0 0 0 0 0 0 0 0 0 0 0 0 0 0 0 0 0 0 0 0 0 0
0 0 0 0 0 0 0 0 0 0 0 0 0 0 0 0 0 0 0 0 0 0 0 0 0 0 0 0 0 0 0 0 0 0 0 0 0 0
0 0 0 0 0 0 0 0 0 0 0 0 0 0 0 0 0 0 0 0 0 0 0 0 0 0 0 0 0 0 0 0 0 0 0 0 0 0
0 0 0 0 0 0 0 0 0 0 0 0 0 0 0 0 0 0 0 0 0 0 0 0 0 0 0 0 0 0 0 0 0 0 0 0 0 0
0 0 0 0 0 0 0 0 0 0 0 0 0 0 0 0 0 0 0 0 0 0 0 0 0 0 0 0 0 0 0 0 0 0 0 0 0 0
0 0 0 0 0 0 0 0 0 0 0 0 0 0 0 0 0 0 0 0 0 0 0 0 0 0 0 0 0 0 0 0 0 0 0 0 0 0
0 0 0 0 0 0 0 0 0 0 0 0 0 0 0 0 0 0 0 0 0 0 0 0 0 0 0 0 0 0 0 0 0 0 0 0 0 0
0 0 0 0 0 0 0 0 0 0 0 0 0 0 0 0 0 0 0 0 0 0 0 0 0 0 0 0 0 0 0 0 0 0 0 0 0 0
0 0 0 0 0 0 0 0 0 0 0 0 0 0 0 0 0 0 0 0 0 0 0 0 0 0 0 0 0 0 0 0 0 0 0 0 0 0
0 0 0 0 0 0 0 0 0 0 0 0 0 0 0 0 0 0 0 0 0 0 0 0 0 0 0 0 0 0 0 0 0 0 0 0 0 0
0 0 0 0 0 0 0 0 0 0 0 0 0 0 0 0 0 0 0 0 0 0 0 0 0 0 0 0 0 0 0 0 0 0 0 0 0 0
0 0 0 0 0 0 0 0 0 0 0 0 0 0 0 0 0 0 0 0 0 0 0 0 0 0 0 0 0 0 0 0 0 0 0 0 0 0
0 0 0 0 0 0 0 0 0 0 0 0 0 0 0 0 0 0 0 0 0 0 0 0 0 0 0 0 0 0 0 0 0 0 0 0 0 0
0 0 0 0 0 0 0 0 0 0 0 0 0 0 0 0 0 0 0 0 0 0 0 0 0 0 0 0 0 0 0 0 0 0 0 0 0 0
0 0 0 0 0 0 0 0 0 0 0 0 0 0 0 0 0 0 0 0 0 0 0 0 0 0 0 0 0 0 0 0 0 0 0 0 0 0
Wind_Speed
5 5 4 4 4 4 4 4 3 3 2 2 0 1 2 3 5 5 6 11 13 14 14 13 13 12 12 11 11 11 10 10 10 9 8 5 1 4
5 5 5 4 4 3 4 4 4 4 3 2 1 2 4 5 7 6 8 14 14 14 14 14 14 14 13 13 12 12 12 12 13 13 13 13 11 9
6 6 6 5 4 3 3 3 4 4 5 3 1 3 5 8 7 7 7 7 8 14 15 15 15 14 14 14 13 13 13 14 14 14 15 15 16 16
7 7 7 5 5 4 3 4 4 4 4 4 3 3 5 9 9 9 7 8 8 13 15 16 15 15 15 14 14 13 13 14 14 15 16 16 17 18
7 8 7 6 6 4 4 4 4 4 4 4 4 3 5 8 10 9 9 8 8 11 14 15 15 15 15 15 15 14 14 14 14 15 15 16 17 19
7 8 8 8 7 6 5 5 4 4 5 6 6 6 6 8 9 9 8 6 7 8 9 11 14 16 16 16 16 16 14 14 14 15 15 15 16 17
6 7 8 10 10 7 5 5 5 5 5 7 8 7 8 10 9 7 9 8 7 5 7 6 6 6 7 12 15 16 14 14 14 14 14 14 15 15
7 6 7 9 10 10 10 9 9 8 8 7 7 10 10 10 8 10 11 10 6 3 5 5 4 5 4 4 9 12 12 12 13 13 13 13 13 14
6 6 6 7 8 5 5 5 6 10 10 8 11 11 11 12 12 11 9 6 7 7 6 5 3 4 3 4 8 10 10 11 11 11 11 12 12 12
6 7 7 7 8 7 5 3 3 3 7 7 8 9 11 10 10 10 10 9 8 5 4 5 3 3 3 2 4 7 8 9 9 9 9 10 10 10
6 6 6 7 11 11 7 6 6 5 8 12 12 14 16 15 12 10 10 11 10 5 2 4 3 3 2 1 1 4 5 6 7 8 8 9 9 8
4 4 6 8 12 13 9 9 9 7 9 13 14 14 13 13 12 9 9 11 9 5 3 4 4 4 3 1 1 1 1 2 3 4 5 7 7 4
3 3 3 8 12 13 10 8 11 10 9 11 10 9 7 6 6 5 6 9 8 4 6 5 4 3 4 3 2 2 2 1 0 0 1 4 6 5
3 2 2 7 10 12 9 11 14 12 8 8 8 7 7 6 5 5 6 6 6 7 10 8 6 5 5 4 3 2 2 2 2 1 1 2 3 4
3 2 2 6 8 9 12 16 13 8 8 8 8 5 4 5 6 5 6 7 6 5 7 6 8 6 5 5 4 4 3 2 3 2 2 2 3 2
3 2 3 6 5 6 10 11 7 8 9 8 7 5 4 5 5 5 6 6 6 4 4 4 8 9 5 4 5 4 4 4 3 2 2 1 1 2
5 3 3 4 4 5 6 6 5 7 7 6 7 6 5 5 4 4 4 4 5 4 3 3 4 5 6 6 5 4 3 2 3 3 3 2 1 2
7 4 4 5 5 7 8 6 5 7 7 8 8 7 6 6 4 3 3 5 5 4 4 4 5 5 5 6 3 5 3 3 2 2 3 3 1 2
5 5 5 6 5 6 7 6 5 6 7 8 8 7 6 6 5 5 4 4 4 4 3 3 4 6 6 3 2 1 5 4 3 2 2 3 3 4
4 5 5 5 5 5 6 6 6 7 7 7 7 7 6 5 5 5 5 5 4 4 3 2 3 5 6 6 4 3 4 5 4 3 2 2 2 3
4 4 4 4 4 5 5 6 8 7 8 7 7 7 6 6 5 5 5 7 5 4 4 4 4 5 4 4 3 1 3 5 7 5 5 3 1 1
3 3 3 3 4 5 6 7 7 7 7 6 6 6 6 6 7 7 6 6 5 5 5 3 3 3 3 4 4 4 3 3 5 7 7 9 6 6
3 2 2 3 4 5 6 7 8 7 6 6 6 6 6 5 5 6 6 6 6 5 4 4 3 2 2 3 4 3 4 4 3 3 6 12 15 15
Wind_Direction
232 234 232 236 229 224 215 201 209 245 275 263 216 92 97 93 105 102 107 113 110 108 107 105 104 101 96 90 84 79 75 71 67 61 55 47 19 240
229 233 236 236 235 230 223 214 204 206 229 241 195 144 131 121 114 107 107 109 105 107 107 106 104 101 97 92 87 81 77 75 72 69 67 63 60 61
231 229 234 231 232 233 228 220 213 202 222 223 173 141 132 129 120 111 109 103 105 107 108 107 104 100 95 90 86 83 80 78 75 72 70 68 66 65
228 226 233 231 228 228 225 228 222 208 202 198 167 148 137 138 129 122 115 108 104 107 106 105 103 99 94 90 86 81 79 77 76 74 73 72 72 72
226 220 224 218 226 225 227 232 230 219 199 181 165 146 135 139 130 119 112 107 104 106 101 99 100 98 95 92 89 85 82 80 77 76 75 75 75 76
236 224 217 210 216 219 228 232 227 216 194 179 162 151 143 139 133 131 121 114 109 104 97 99 99 96 97 98 97 94 89 86 83 80 78 76 75 75
255 235 221 213 211 210 218 224 212 205 187 175 163 152 150 150 144 138 130 118 97 106 108 97 90 85 85 97 100 100 96 92 89 87 84 81 79 77
258 245 227 211 209 213 225 226 213 199 187 174 165 161 155 150 139 142 139 136 120 134 112 98 90 87 76 84 107 106 103 101 98 94 90 86 83 81
254 239 227 204 189 196 211 216 213 203 189 172 163 160 156 154 147 146 147 134 127 148 123 101 85 84 78 96 114 115 114 112 110 106 102 97 92 89
255 238 223 196 189 182 176 159 138 151 171 163 153 146 145 143 141 141 135 112 104 122 111 107 103 91 83 73 116 122 123 122 123 124 123 118 109 101
260 244 220 199 191 176 161 146 126 110 108 116 120 122 125 128 134 133 132 134 136 141 122 110 124 103 86 84 104 129 126 127 129 131 137 142 131 107
258 244 223 207 187 175 163 154 144 135 129 119 114 116 122 128 136 142 146 146 143 143 161 121 139 130 120 155 168 140 109 107 113 122 135 146 145 112
240 238 220 202 189 179 165 159 150 140 131 125 120 117 116 124 136 146 151 154 153 150 159 134 142 139 132 148 181 191 176 173 98 11 161 167 165 149
220 226 209 187 188 179 164 148 142 134 128 125 123 124 127 131 135 142 148 154 160 157 158 148 142 156 134 132 166 175 185 197 182 209 215 175 170 168
194 187 183 179 182 178 162 151 147 138 136 134 134 131 128 128 120 108 104 107 91 109 148 154 146 144 141 146 153 150 160 200 189 185 185 177 175 156
171 138 145 169 178 167 159 157 151 147 145 140 133 124 112 110 119 121 122 117 99 67 51 111 147 145 137 135 137 147 156 171 179 179 165 169 182 179
157 143 140 151 164 160 157 152 139 137 130 126 132 130 125 118 115 111 112 105 113 125 99 57 66 91 120 136 134 142 145 158 173 159 134 122 222 205
154 159 158 157 169 166 158 145 137 141 140 138 140 138 137 134 127 113 108 120 127 130 129 130 117 91 59 25 88 138 140 161 172 156 135 134 214 247
156 157 155 158 167 161 156 146 142 145 143 145 147 146 141 136 131 128 122 121 126 129 133 134 128 121 126 141 300 161 151 157 152 156 170 168 197 230
152 150 150 149 152 153 150 141 138 142 145 146 147 146 143 139 139 141 141 139 136 128 125 130 144 146 155 165 177 211 184 157 158 178 198 204 251 287
142 140 139 139 147 153 148 141 142 146 147 145 147 148 147 142 146 153 156 156 141 137 155 184 198 156 113 97 106 215 239 205 176 172 172 167 221 272
135 132 136 149 155 152 143 139 139 142 144 142 148 151 150 148 150 154 159 160 160 159 168 167 125 116 116 143 174 201 230 244 229 215 198 181 176 198
142 149 160 162 155 148 143 143 144 147 149 148 149 151 148 146 149 153 158 159 155 153 143 145 145 143 155 160 172 193 215 220 212 220 245 236 227 230